Location: Hard
(49.9417°N, 12.0858°E)
Time: 18:05:29
(UTC+00:00)

CZ-2D R/B - Pass Details

Date: 07 June 2020
Orbit: 791 x 845 km, 98.7° (Epoch: 13 July)

Event Time Altitude Azimuth Distance (km) Brightness Sun altitude
Rises 02:04:02 0° 8° (N) 3,315 6.4 -7.8°
Reaches altitude 10° 02:06:34 10° 359° (N) 2,376 5.3 -7.5°
Maximum altitude 02:11:09 32° 298° (WNW) 1,338 3.2 -7.0°
Drops below altitude 10° 02:15:43 10° 236° (WSW) 2,356 3.9 -6.5°
Enters shadow 02:16:21 - 233° (SW) 2,585 4.1 -6.5°
